Погода в Эмдене

Германия     53°22′05″N   7°12′22″E
темп.,
°C
ветер,
м/с
пор.,
м/с
влажн.,
%
обл.,
%
осадки,
мм/ч
давл.,
гПа
погр.,
м
4 июля, пн
пн423:00+13з37935 0.3 1018118
02:00+11зюз35940 0.3 101887
05:00+11зюз37945 0.0 1018128
08:00+14юз488986 0.0 1019282
11:00+18зюз6871100 0.3 10191142
14:00+21з675012 0.8 10182054
17:00+21зсз78505 0.0 10191860
20:00+17зсз57713 0.0 1019781
5 июля, вт
вт523:00+12з34920 0.0 102050
02:00+11зюз35935 0.0 102076
05:00+10юз369360 0.0 1020106
08:00+14юз4981100 0.1 1020296
11:00+17зюз686698 0.1 10211066
14:00+19зсз6858100 0.9 10211791
17:00+18сз786076 0.1 10221531
20:00+15сз5874100 0.2 1023952
6 июля, ср
ср623:00+11зсз35865 0.0 102470
02:00+10з3593100 0.0 102474
05:00+9зюз46946 0.0 1024111
08:00+13зюз477690 0.0 1024300
11:00+18зюз4661100 0.0 10231263
14:00+18зюз5863100 0.0 10221299
17:00+17зюз61075100 0.0 1020893
20:00+15зюз51097100 1.2 1019565
7 июля, чт
чт723:00+15зюз51097100 0.4 1018486
02:00+15зюз6129899 0.5 1017527
05:00+15сз61193100 0.6 1016630
08:00+16сз71191100 0.9 1017860
11:00+16ссз81181100 0.6 10201115
14:00+18ссз10115987 0.6 10221607
17:00+16сз81171100 0.2 10241501
20:00+15ссз8116669 0.3 10251425
8 июля, пт
пт823:00+14сз612700 0.0 1026576
02:00+13ссз511770 0.0 1027343
05:00+12сз49850 0.0 1027212
08:00+16ссз587430 0.1 10281079
11:00+17ссз5778100 0.0 1029828
14:00+18сз688241 0.6 1029854
17:00+20сз797050 0.3 10291113
20:00+17сз698311 0.3 1029840